Vorticity
4 4 5 4 14 8 6 6 8 7 5 4 3 3 3 3 3 2 2 2 2 2 2 3 3 3 3 3 3 3 3 2 2 2 3 4 4 5 5 5 4 3 2
5 4 1 8 14 7 6 8 6 8 9 6 5 4 3 3 3 3 2 2 3 3 3 4 3 3 3 4 3 3 3 3 4 5 6 6 6 6 4 4 4 6 7
7 5 3 11 13 8 6 6 4 9 6 6 7 7 5 4 5 5 5 5 6 5 5 4 3 3 4 4 5 5 6 7 8 8 9 10 14 15 15 14 14 14 10
4 7 5 17 7 8 7 5 7 8 9 9 8 6 6 7 7 6 6 6 6 5 6 6 8 9 11 12 11 11 10 10 8 10 9 9 7 8 10 7 5 9 19
-7 7 6 17 6 6 7 5 7 5 6 7 8 9 10 10 10 10 10 10 10 10 9 9 10 9 9 7 8 8 7 7 6 6 6 3 2 3 2 5 1 3 11
4 13 16 7 5 5 4 9 9 7 9 10 8 8 8 8 9 9 8 8 7 7 9 8 7 6 5 4 5 5 4 4 3 4 5 4 1 2 1 2 2 4 7
8 13 10 5 4 7 6 10 7 5 8 9 9 7 5 6 4 4 5 5 5 4 3 2 3 4 5 5 4 4 3 3 2 2 2 2 3 2 3 3 5 3 5
11 12 5 3 5 5 8 10 8 5 6 5 6 5 5 1 4 5 6 6 5 3 3 5 5 4 3 2 1 2 1 1 2 3 3 3 2 2 2 3 4 4 4
11 7 4 5 6 6 11 9 7 5 4 5 5 3 2 5 6 5 3 4 3 1 3 3 2 3 4 3 3 3 3 3 3 2 2 2 2 3 4 4 4 4 5
6 5 3 6 6 9 7 9 8 6 6 6 6 2 2 6 5 5 6 8 5 3 2 3 5 5 5 5 5 4 4 3 3 3 2 3 3 4 5 4 1 3 5
6 3 6 5 6 7 7 6 8 8 6 6 5 3 4 5 4 4 2 3 3 4 6 5 4 5 4 4 4 4 4 4 3 3 3 3 3 3 2 1 2 0 -0
6 5 6 5 5 7 7 5 4 5 5 4 3 4 5 5 3 3 4 4 4 2 1 4 8 3 5 10 10 8 6 6 4 4 3 3 3 6 8 3 -0 2 2
6 7 5 4 3 7 9 3 4 7 6 6 4 5 5 4 4 3 3 1 1 4 3 2 -2 0 1 1 7 9 8 7 6 4 4 4 1 -0 1 1 -0 -3 -3
7 7 6 5 3 7 7 5 2 4 11 8 5 3 2 3 3 4 2 -1 0 0 -1 1 2 2 2 5 2 4 6 4 4 5 5 6 7 6 3 3 2 5 11
6 7 6 7 5 3 8 5 3 1 5 9 6 3 2 3 3 4 1 -1 -1 -1 -0 1 3 2 3 1 3 4 4 5 6 6 7 6 4 2 6 8 5 4 9
5 8 6 6 6 4 3 7 5 5 2 3 4 6 6 3 5 4 3 1 -0 -1 -1 1 2 3 2 5 5 6 6 5 8 9 8 6 5 5 8 7 12 16 17
5 8 9 7 7 6 5 5 7 5 5 4 3 7 8 4 4 4 3 2 2 1 2 3 4 2 4 4 6 6 7 6 8 7 6 9 12 10 10 11 11 8 8
6 7 8 7 8 8 6 5 7 6 5 3 3 6 8 4 3 3 3 3 3 3 4 3 4 3 4 7 9 9 8 9 7 6 7 11 10 9 7 8 7 7 10
9 10 10 4 6 6 6 6 8 9 6 5 4 3 5 4 4 4 4 2 4 4 4 3 3 5 8 9 10 11 10 7 7 11 10 8 7 7 8 6 8 7 8
6 9 9 9 9 7 5 5 7 8 7 6 4 4 5 5 4 3 3 4 3 4 2 4 3 7 9 10 8 6 8 11 8 4 9 9 8 11 9 9 6 5 4
6 10 8 8 8 6 5 5 7 10 8 8 6 6 5 4 3 4 4 3 5 2 4 3 5 9 13 10 9 7 6 4 11 8 8 9 10 10 9 9 4 7 4
6 7 7 7 8 8 7 6 6 5 5 6 7 5 4 3 3 1 1 3 0 2 1 9 18 16 6 9 5 5 6 10 8 10 14 13 10 8 7 9 10 12 18
10 8 6 5 6 6 4 4 4 6 7 7 5 4 3 2 3 2 4 -1 4 8 16 16 11 9 8 9 9 10 10 12 11 12 11 9 6 8 10 11 15 18 18
-0 7 6 4 5 5 6 6 8 7 9 7 5 3 0 1 1 7 -2 -2 12 18 11 10 10 11 9 8 9 5 7 9 16 9 11 4 9 8 10 15 14 11 11
12 9 11 10 10 13 15 16 9 7 6 3 3 1 4 1 2 6 -6 11 15 12 11 5 9 12 6 5 6 9 9 13 12 13 3 2 11 15 17 12 12 15 18
5 7 9 9 4 5 7 8 7 4 4 2 2 1 2 3 2 1 6 11 14 13 6 6 10 7 5 9 8 9 12 11 7 8 12 14 22 14 13 15 17 22 27
Height
5863 5862 5860 5857 5856 5855 5853 5851 5850 5849 5848 5847 5846 5846 5846 5846 5846 5846 5845 5845 5845 5845 5844 5844 5843 5843 5842 5842 5841 5840 5839 5839 5837 5836 5834 5833 5833 5831 5830 5828 5827 5826 5824
5861 5860 5858 5856 5855 5854 5852 5851 5850 5848 5847 5846 5846 5845 5844 5843 5843 5843 5844 5844 5843 5843 5842 5842 5841 5840 5840 5839 5839 5838 5837 5836 5834 5832 5832 5830 5829 5828 5827 5826 5824 5823 5821
5858 5857 5856 5855 5854 5852 5851 5850 5848 5847 5846 5845 5844 5843 5843 5842 5841 5841 5841 5840 5840 5840 5840 5839 5838 5837 5836 5836 5835 5835 5834 5832 5830 5829 5828 5827 5826 5824 5823 5821 5820 5819 5817
5855 5854 5854 5854 5852 5851 5850 5849 5847 5846 5844 5843 5842 5842 5841 5840 5839 5839 5838 5838 5838 5837 5837 5836 5835 5834 5833 5832 5831 5831 5830 5829 5828 5826 5824 5823 5822 5820 5819 5817 5816 5814 5812
5852 5852 5851 5851 5850 5850 5849 5847 5845 5843 5842 5841 5840 5839 5839 5838 5838 5837 5837 5836 5835 5835 5834 5834 5833 5831 5831 5829 5828 5827 5827 5826 5825 5824 5822 5820 5818 5817 5816 5814 5812 5810 5808
5850 5849 5849 5848 5848 5847 5846 5844 5842 5841 5840 5839 5838 5838 5837 5836 5836 5836 5834 5834 5834 5834 5833 5832 5831 5830 5829 5828 5827 5825 5824 5823 5823 5821 5820 5819 5816 5813 5812 5810 5809 5807 5805
5846 5846 5846 5846 5845 5845 5843 5841 5840 5839 5837 5836 5836 5835 5835 5835 5835 5834 5833 5832 5832 5831 5831 5830 5829 5828 5827 5826 5825 5824 5822 5820 5819 5818 5817 5816 5814 5810 5808 5807 5806 5804 5802
5842 5844 5843 5843 5842 5841 5840 5839 5837 5836 5835 5834 5833 5833 5833 5833 5832 5832 5831 5831 5830 5829 5828 5827 5827 5826 5825 5823 5822 5821 5819 5817 5815 5814 5813 5812 5811 5808 5804 5802 5801 5799 5797
5840 5840 5840 5839 5838 5838 5836 5835 5834 5833 5832 5831 5831 5831 5830 5829 5829 5829 5828 5827 5827 5826 5825 5824 5823 5822 5821 5819 5818 5816 5815 5813 5811 5809 5807 5805 5803 5802 5800 5797 5795 5794 5792
5836 5836 5836 5835 5835 5834 5833 5831 5830 5829 5828 5828 5828 5827 5827 5826 5826 5826 5825 5825 5824 5823 5822 5820 5819 5818 5817 5815 5813 5811 5810 5808 5806 5803 5801 5798 5796 5794 5793 5791 5789 5788 5786
5832 5832 5832 5831 5830 5830 5829 5827 5826 5825 5825 5824 5824 5823 5823 5822 5822 5821 5820 5820 5819 5818 5817 5816 5815 5814 5812 5810 5809 5806 5804 5802 5799 5797 5794 5791 5788 5785 5785 5784 5783 5781 5779
5828 5828 5827 5826 5825 5825 5824 5823 5823 5822 5821 5820 5819 5819 5819 5818 5817 5817 5815 5815 5814 5813 5812 5811 5809 5808 5806 5804 5801 5799 5796 5794 5792 5789 5786 5783 5780 5777 5776 5776 5776 5774 5772
5822 5823 5823 5821 5821 5821 5821 5820 5820 5818 5817 5817 5816 5815 5815 5814 5813 5812 5811 5810 5810 5808 5807 5805 5803 5801 5799 5797 5794 5791 5788 5786 5783 5780 5777 5773 5771 5769 5767 5766 5765 5765 5763
5817 5816 5816 5816 5816 5816 5816 5816 5815 5814 5812 5812 5811 5810 5810 5809 5808 5807 5806 5805 5804 5803 5801 5799 5796 5793 5790 5788 5785 5783 5779 5776 5773 5770 5767 5763 5760 5758 5757 5755 5754 5753 5753
5810 5809 5809 5810 5810 5810 5810 5810 5809 5808 5807 5807 5806 5805 5804 5803 5802 5801 5799 5799 5797 5795 5793 5790 5787 5783 5780 5777 5774 5772 5768 5765 5762 5759 5755 5752 5748 5746 5744 5744 5744 5744 5743
5802 5802 5801 5802 5803 5803 5803 5804 5803 5802 5801 5800 5800 5799 5797 5796 5795 5794 5793 5791 5790 5787 5784 5781 5777 5774 5770 5767 5764 5761 5757 5754 5751 5746 5742 5739 5736 5733 5732 5732 5732 5732 5732
5795 5795 5794 5795 5796 5796 5796 5796 5795 5794 5794 5793 5792 5791 5790 5788 5786 5785 5784 5783 5780 5778 5775 5772 5768 5765 5761 5757 5754 5751 5747 5743 5739 5735 5731 5728 5725 5722 5721 5719 5719 5720 5720
5787 5787 5787 5787 5788 5788 5787 5787 5787 5786 5785 5784 5784 5783 5782 5780 5778 5776 5775 5773 5771 5769 5766 5763 5759 5755 5750 5746 5742 5738 5735 5731 5727 5723 5719 5715 5711 5707 5705 5705 5704 5705 5705
5779 5778 5777 5778 5778 5779 5779 5779 5779 5778 5778 5776 5775 5775 5773 5772 5770 5768 5766 5764 5761 5759 5756 5753 5749 5744 5739 5734 5730 5727 5723 5719 5715 5710 5706 5702 5698 5694 5691 5689 5689 5688 5689
5768 5768 5769 5769 5769 5770 5770 5770 5769 5769 5769 5767 5766 5765 5764 5763 5760 5758 5756 5754 5751 5748 5745 5742 5738 5733 5728 5722 5719 5716 5711 5707 5703 5698 5693 5688 5684 5680 5676 5673 5672 5671 5671
5759 5759 5759 5759 5759 5761 5761 5760 5760 5759 5759 5758 5757 5755 5754 5752 5749 5747 5745 5742 5739 5736 5732 5728 5725 5721 5716 5711 5706 5702 5698 5693 5688 5683 5677 5672 5667 5664 5660 5658 5655 5653 5652
5751 5752 5751 5750 5750 5750 5751 5750 5751 5750 5749 5748 5747 5746 5745 5742 5740 5738 5735 5732 5728 5724 5720 5716 5711 5708 5704 5699 5695 5692 5688 5683 5676 5669 5663 5658 5653 5648 5644 5639 5637 5635 5634
5744 5743 5741 5740 5740 5742 5742 5742 5741 5740 5739 5738 5737 5735 5733 5731 5729 5727 5724 5721 5716 5712 5707 5703 5699 5695 5691 5688 5683 5680 5677 5673 5667 5656 5649 5645 5638 5632 5627 5621 5618 5617 5615
5734 5733 5732 5731 5732 5733 5732 5732 5731 5730 5730 5729 5727 5726 5724 5722 5719 5716 5713 5708 5704 5699 5694 5690 5686 5682 5677 5672 5669 5665 5661 5658 5655 5653 5638 5631 5622 5615 5611 5605 5601 5599 5596
5725 5724 5722 5723 5724 5723 5723 5722 5721 5721 5721 5719 5717 5715 5713 5711 5708 5705 5701 5697 5692 5686 5681 5677 5673 5669 5665 5660 5655 5649 5645 5641 5638 5636 5634 5623 5610 5599 5593 5588 5585 5581 5578
5715 5715 5714 5714 5714 5713 5713 5712 5711 5710 5710 5708 5705 5703 5701 5698 5695 5691 5688 5685 5679 5674 5669 5665 5661 5656 5650 5645 5641 5636 5631 5625 5620 5617 5614 5610 5602 5593 5584 5571 5568 5565 5563